Home > Weather > Las Palmas > Past weeks

Flag for Spain Past Weather in Las Palmas, Canary Islands, Spain — Yesterday and Last 2 Weeks

Now
73 °F

Passing clouds.


Feels Like: 77 °F
Forecast: 67 / 76 °F
Wind: 29 mph from Northeast

Location: Las Palmas De Gran Canaria / Gando

Current Time: May 31, 2016 at 3:24:18 PM

Latest Report: May 31, 2016 at 2:30 PM


Visibility: N/A

Pressure: 30.09 "Hg

Humidity: 53%

Dew Point: 55 °F

Location of Las PalmasLocation

Past Weather in Las Palmas — Graph

°F

Las Palmas Temperature Yesterday

Maximum temperature yesterday: 75 °F (at 3:30 PM)
Minimum temperature yesterday: 66 °F (at 2:00 AM)
Average temperature yesterday: 69 °F

High & Low Weather Summary for the Past Weeks

 TemperatureHumidityPressure
High77 °F (May 28, 1:00 PM)83% (May 22, 2:00 AM)30.27 "Hg (May 22, 2:00 AM)
Low61 °F (May 27, 5:00 AM)41% (May 30, 3:30 PM)29.95 "Hg (May 25, 5:00 PM)
Average69 °F64%30.09 "Hg
* Reported May 16 2:00 PM — May 31 2:00 PM, Las Palmas, Weather by CustomWeather, © 2016

Note: Actual official high and low records may vary slightly from our data, if they occured in-between our weather recording intervals... More about our weather records

Advertising

Las Palmas Weather History for the Previous 24 Hours

Scroll right to see more
 ConditionsComfort  
Time TempWeatherWind HumidityBarometerVisibility
2:00 PM
Tue, May 31
73 °FPassing clouds.28 mph53%30.09 "HgN/A
1:30 PM73 °FPassing clouds.28 mph53%30.09 "HgN/A
1:00 PM73 °FPassing clouds.26 mph53%30.09 "HgN/A
12:30 PM73 °FScattered clouds.28 mph50%30.09 "HgN/A
12:00 PM72 °FPassing clouds.28 mph53%30.09 "HgN/A
11:30 AM72 °FScattered clouds.28 mph53%30.09 "HgN/A
11:00 AM70 °FScattered clouds.26 mph60%30.09 "HgN/A
10:30 AM70 °FBroken clouds.24 mph57%30.09 "HgN/A
10:00 AM68 °FScattered clouds.24 mph60%30.09 "HgN/A
9:30 AM68 °FScattered clouds.22 mph60%30.09 "HgN/A
9:00 AM68 °FScattered clouds.23 mph60%30.09 "HgN/A
8:30 AM66 °FScattered clouds.21 mph60%30.09 "HgN/A
8:00 AM66 °FPassing clouds.24 mph60%30.07 "HgN/A
7:30 AM66 °FPassing clouds.23 mph60%30.07 "HgN/A
7:00 AM66 °FPassing clouds.18 mph68%30.07 "HgN/A
6:30 AM66 °FPassing clouds.15 mph64%30.07 "HgN/A
6:00 AM66 °FPassing clouds.20 mph68%30.07 "HgN/A
5:30 AM66 °FPassing clouds.23 mph68%30.07 "HgN/A
5:00 AM66 °FPassing clouds.21 mph68%30.07 "HgN/A
4:30 AM66 °FPassing clouds.20 mph64%30.07 "HgN/A
4:00 AM66 °FPassing clouds.21 mph64%30.07 "HgN/A
3:30 AM66 °FPassing clouds.22 mph64%30.07 "HgN/A
3:00 AM66 °FPassing clouds.22 mph68%30.07 "HgN/A
2:30 AM68 °FPassing clouds.20 mph64%30.09 "HgN/A
2:00 AM68 °FPassing clouds.17 mph64%30.09 "HgN/A
1:30 AM66 °FPassing clouds.21 mph68%30.09 "HgN/A
1:00 AM66 °FPassing clouds.23 mph68%30.09 "HgN/A
12:30 AM66 °FPassing clouds.24 mph68%30.12 "HgN/A
12:00 AM68 °FPassing clouds.23 mph64%30.12 "HgN/A
11:30 PM
Mon, May 30
68 °FPassing clouds.24 mph64%30.12 "HgN/A
11:00 PM68 °FPassing clouds.24 mph64%30.12 "HgN/A
10:30 PM68 °FPassing clouds.23 mph64%30.12 "HgN/A
10:00 PM68 °FPassing clouds.22 mph64%30.12 "HgN/A
9:30 PM68 °FPassing clouds.26 mph60%30.12 "HgN/A
9:00 PM68 °FPassing clouds.26 mph64%30.09 "HgN/A
8:30 PM68 °FPassing clouds.24 mph64%30.09 "HgN/A
8:00 PM70 °FPassing clouds.24 mph60%30.09 "HgN/A
7:30 PM70 °FPassing clouds.24 mph57%30.09 "HgN/A
7:00 PM72 °FPassing clouds.28 mph53%30.09 "HgN/A
6:30 PM72 °FPassing clouds.30 mph57%30.09 "HgN/A
6:00 PM72 °FPassing clouds.29 mph57%30.09 "HgN/A
5:30 PM72 °FScattered clouds.29 mph61%30.09 "HgN/A
5:00 PM72 °FPartly sunny.30 mph61%30.09 "HgN/A
4:30 PM73 °FScattered clouds.29 mph53%30.09 "HgN/A
4:00 PM73 °FPassing clouds.24 mph47%30.09 "HgN/A
3:30 PM75 °FPassing clouds.24 mph41%30.09 "HgN/A
3:00 PM73 °FPassing clouds.26 mph50%30.12 "HgN/A
Weather by CustomWeather, © 2016

See weather overviewHow to use our weather pages